NEW BERN NC US current weather conditions

sailwx.info

Wind from 268 at 1 knots gusting 11

Air temperature 12.8° C
Dewpoint 12.5° C

Last reported at 2020-Jan-25 12:17 UTC.
Time now 2020-Jan-25 13:46 UTC

Location: N 35°06' W 077°07'.
View on Google Maps.

See reports from other nearby stations

  
Tides and Currents Weather Stations Pressure Air Temp Water Temp Dewpoint Dewpoint Depression Visibility Wind Speed Wind Dir Waves Ship Positions
date/time (UTC)wind fromknots sea level pressurealtimeterstation pressurevisibilityair tempwater tempwave heightnotes
2020-Jan-25 12:17 268 1 gusting 11 12.8
2020-Jan-25 11:17 300 5 gusting 13 14.4
2020-Jan-25 10:17 232 6 gusting 15 16.7
2020-Jan-25 09:17 184 6 gusting 17 16.7
2020-Jan-25 08:17 155 8 gusting 16 15.6
2020-Jan-25 07:17 176 6 gusting 14 15.6
2020-Jan-25 06:17 170 6 gusting 19 16.1
2020-Jan-25 05:17 158 5 gusting 13 16.7
2020-Jan-25 04:17 159 4 gusting 9 16.1
2020-Jan-25 03:17 135 3 gusting 7 15.0
2020-Jan-25 02:17 125 3 gusting 6 15.0
2020-Jan-25 01:17 117 3 gusting 7 14.4
2020-Jan-25 00:17 118 4 gusting 6 15.0
2020-Jan-24 23:17 095 3 gusting 6 16.1
2020-Jan-24 22:17 115 3 gusting 8 17.2
2020-Jan-24 21:17 115 5 gusting 9 18.9
2020-Jan-24 20:17 116 5 gusting 8 18.9
2020-Jan-24 19:17 097 5 gusting 10 18.9
2020-Jan-24 18:17 107 4 gusting 8 18.9
2020-Jan-24 17:17 135 2 gusting 8 18.3
2020-Jan-24 16:17 089 4 gusting 9 16.1
2020-Jan-24 15:17 082 2 gusting 6 12.8
2020-Jan-24 14:17 069 2 gusting 6 10.6
2020-Jan-24 13:17 028 3 gusting 5 8.9
2020-Jan-24 12:17 023 1 gusting 4 8.3
2020-Jan-24 11:17 035 1 gusting 4 8.3
2020-Jan-24 10:17 048 2 gusting 5 7.8
2020-Jan-24 09:17 037 2 gusting 7 7.8
2020-Jan-24 08:17 032 3 gusting 7 8.3
2020-Jan-24 07:17 039 3 gusting 6 8.3
2020-Jan-24 06:17 028 3 gusting 6 8.3
2020-Jan-24 05:17 013 2 gusting 5 8.3
2020-Jan-24 04:17 033 3 gusting 6 8.9
2020-Jan-24 03:17 047 1 gusting 6 9.4
2020-Jan-24 02:17 036 3 gusting 7 10.0
2020-Jan-24 01:17 039 4 gusting 7 10.6
2020-Jan-24 00:17 043 4 gusting 6 11.1
2020-Jan-23 23:17 053 3 gusting 8 11.7
2020-Jan-23 22:17 037 4 gusting 10 12.8
2020-Jan-23 21:17 028 5 gusting 9 13.9
2020-Jan-23 20:17 041 5 gusting 8 14.4
2020-Jan-23 19:17 054 5 gusting 12 15.0
2020-Jan-23 18:17 053 3 gusting 8 15.0
2020-Jan-23 17:17 036 3 gusting 9 13.3
2020-Jan-23 16:17 049 5 gusting 11 10.0
2020-Jan-23 15:17 044 4 gusting 11 7.8
2020-Jan-23 14:17 006 4 gusting 10 3.9
2020-Jan-23 13:17 017 3 gusting 6 2.2